Other Surface Observations
Issued by NWS Tucson, AZ

Home | Current Version | Previous Version | Text Only | Print | Product List | Glossary On
Versions: 1 2 3 4 5 6 7 8 9 10 11 12 13 14 15 16 17 18 19 20 21 22 23 24 25 26 27 28 29 30 31 32 33 34 35 36 37 38 39 40 41 42 43 44 45 46 47 48 49 50
000
SXUS55 KTWC 150216
OSOTWC

WEATHER ROUNDUP FOR SOUTHEAST ARIZONA
NATIONAL WEATHER SERVICE TUCSON AZ
715 PM MST SUN SEP 14 2014

AZZ504>506-514-150315-
LOCATION       SKY/WX    TMP DP  RH WIND       PRES   REMARKS
TUCSON         CLEAR     92  55  28 E8        29.88R
DAVIS-MONTHAN  CLEAR     90  57  33 NE8       29.86R
CHILDRENS PARK N/A       93  54  27 SE4               PIMA CO DEQ
ALVERNON/22ND  N/A      N/A N/A N/A N/A               PIMA CO DEQ
CHERRY/GLENN   N/A      N/A N/A N/A N/A               PIMA CO DEQ
TANGERINE      N/A       94 N/A N/A E2                PIMA CO DEQ
CONTL RANCH    N/A       96  53  24 SE3               PIMA CO DEQ
GRANT/1ST      N/A       94  54  26 E3                PIMA CO DEQ
CRAYCROFT/22ND N/A      N/A N/A N/A N/A               PIMA CO DEQ
GOLFLINKS/KOLB N/A       92  54  28 NE4               PIMA CO DEQ
AJO/12TH       N/A       93  53  26 E3                PIMA CO DEQ
SAGUARO EAST   N/A      N/A N/A N/A N/A               PIMA CO DEQ
FAIRGROUNDS    N/A       92 N/A N/A E12               PIMA CO DEQ
SAGUARO        N/A       92  55  29 E5G10             *SABINO CYN
SAN CARLOS     N/A       88  54  31 SE10G19           *SAN CARLOS
GREEN VALLEY   N/A       93  55  28 NE6               PIMA CO DEQ
HORSE CAMP CYN N/A       84  52  33 SE13G21           *ARAVAIPA CYN
RINCON MTNS    N/A       60  52  74 E4                *NR MANNING CAMP
$$

AZZ509>511-150315-
LOCATION       SKY/WX    TMP DP  RH WIND       PRES   REMARKS
SAFFORD        CLEAR     84  54  35 SE9       29.94S
STRAY HORSE    N/A       62  46  56 SE2               *
TRAIL CABIN    N/A       69  50  51 S3                *N OF GRANVILLE
BLACK HILLS    N/A       84  53  34 SE10G23           *N OF FT THOMAS
DRY LAKE       N/A       63  49  60 S8G13             *NATANES MTNS
NOON CREEK     N/A       76  54  46 NE5G10            *PINALENO MTNS
COLUMBINE      N/A       62  48  61 N2                *PINALENO MTNS
GUTHRIE        N/A       69  50  51 SE9G22            *SW OF GUTHRIE
$$

AZZ502-503-513-150315-
LOCATION       SKY/WX    TMP DP  RH WIND       PRES   REMARKS
NOGALES        MOCLDY    80  58  46 E8        29.96R
SELLS          N/A       92  55  29 NW5G11            *
SASABE         N/A       89  62  41 W2                *ALTAR VLY
HOPKINS        N/A       72  54  54 SE3               *SANTA RITA MTNS
CARR CYN       N/A       71  54  55 SW3               *W OF HEREFORD
$$

AZZ507-508-512-150315-
LOCATION       SKY/WX    TMP DP  RH WIND       PRES   REMARKS
SIERRA VISTA   CLEAR     77  57  50 S6        30.04R
DOUGLAS        CLEAR     80  54  40 E9        30.01R
EMPIRE MTNS    N/A       75  56  51 SE4G13            *LAS CIENEGAS NCA
MULESHOE RANCH N/A       82  52  36 E6G11             *PRESERVE
HEADQUARTERS   N/A       72  53  51 E6G14             *CHIRICAHUA MTNS
$$

.............................NOTES.............................
THIS IS AN AUTOMATED COLLECTIVE WITH MINIMAL QUALITY CONTROL.
PIMA CO DEQ SITES HAVE NONSTANDARD WIND SENSOR HEIGHTS.
PIMA CO DEQ SITES DO NOT REPORT WIND GUSTS.
* INDICATES WIND SENSORS LOCATED AT 20 FEET INSTEAD OF 33 FEET.
..............................KEY..............................
SKY/WX - SKY CONDITION/WEATHER
TMP    - TEMPERATURE IN FAHRENHEIT
DP     - DEWPOINT IN FAHRENHEIT
RH     - RELATIVE HUMIDITY IN PERCENT
WIND   - DIRECTION AND SPEED IN MILES PER HOUR (MPH)
VRB    - VARIABLE WIND DIRECTION
PRES   - MEAN SEA LEVEL PRESSURE IN INCHES OF MERCURY
         F - FALLING PRESSURE   R - RISING PRESSURE
         S - STEADY PRESSURE
VSB    - VISIBILITY IN MILES
HX     - HEAT INDEX IN FAHRENHEIT
WCI    - WIND CHILL INDEX IN FAHRENHEIT
N/A    - NOT AVAILABLE
AFB    - AIR FORCE BASE
         DAVIS-MONTHAN IS DAVIS-MONTHAN AIR FORCE BASE
CYN    - CANYON
MTNS   - MOUNTAINS
NCA    - NATIONAL CONSERVATION AREA
NR     - NEAR
VLY    - VALLEY
CONTL  - CONTINENTAL
PIMA CO DEQ - PIMA COUNTY DEPT OF ENVIRONMENTAL QUALITY



USA.gov is the U.S. government's official web portal to all federal, state and local government web resources and services.